EUTELSAT QUANTUM

Last updated on Fri Dec 19 2025 00:02:53 GMT+0000 (Coordinated Universal Time)

1 49056U 21069B 25352.56340133 .00000151 00000+0 00000+0 0 9999 2 49056 0.0155 20.1385 0003329 258.3771 59.4383 1.00271306 16117
UTC large
Height (km)
Speed (km/s)
/
Latitude / Longitude
Inclination (degrees)
Orbital Period (minutes)
Azimuth
Elevation
Range (km)
Doppler Factor

Next 0 passes for location: London (51.5072 / 0.1276)

Sorry there are no passes over London.